Gunnison, CO

3:35 PM MDT on June 23, 2017 (GMT -0600)
Gunnison County

Weather History for KGUC - July, 2013

Change the Weather History Date:

Wednesday, July 31, 2013

  Actual Average Record
Temperature  
Mean Temperature 61 °F -  
Max Temperature 80 °F 76 °F 86 °F (2002)
Min Temperature 42 °F 45 °F 39 °F (1996)
Degree Days  
Heating Degree Days 4    
Growing Degree Days 11 (Base 50)    
Moisture  
Dew Point 37 °F    
Average Humidity 45    
Maximum Humidity 81    
Minimum Humidity 16    
Precipitation  
Precipitation 0.00 in - - ()
Sea Level Pressure  
Sea Level Pressure 30.52 in    
Wind  
Wind Speed 3 mph (NW)    
Max Wind Speed 17 mph    
Max Gust Speed 21 mph    
Visibility 10 miles    
Events      
Averages and records for this station are not official NWS values.
T = Trace of Precipitation, MM = Missing Value Source: NWS Daily Summary

Daily Weather History Graph

Daily Weather History Graph

Search for Another Location

Airport or City:

Trip Planner

Search our weather history database for the weather conditions in past years. The results will help you decide how hot, cold, wet, or windy it might be!

Date:

Astronomy

Jul. 31, 2013 Rise Set
Actual Time 6:08 AM MDT 8:18 PM MDT
Civil Twilight 5:39 AM MDT 8:48 PM MDT
Nautical Twilight 5:03 AM MDT 9:24 PM MDT
Astronomical Twilight 4:23 AM MDT 10:03 PM MDT
Moon 1:06 AM MDT (7/31) 3:37 PM MDT (7/31)
Length of Visible Light 15h 08m
Length of Day
14h 09m
Waning Crescent, 31% of the Moon is Illuminated
Jul 31
Waning Crescent
Aug 6
New
Aug 14
First Quarter
Aug 20
Full
Aug 28
Last Quarter

Hourly Weather History & Observations

Time (MDT) Temp. Windchill Dew Point Humidity Pressure Visibility Wind Dir Wind Speed Gust Speed Precip Events Conditions
12:15 AM 53.6 °F - 37.4 °F 54% 30.55 in 10.0 mi North 5.8 mph - N/A   Clear
12:55 AM 53.6 °F - 37.4 °F 54% 30.55 in 10.0 mi North 6.9 mph - N/A   Clear
1:15 AM 50.0 °F - 39.2 °F 66% 30.56 in 10.0 mi Calm Calm - N/A   Clear
1:35 AM 51.8 °F - 37.4 °F 58% 30.56 in 10.0 mi Calm Calm - N/A   Clear
1:55 AM 50.0 °F - 37.4 °F 62% 30.56 in 10.0 mi Calm Calm - N/A   Clear
2:15 AM 50.0 °F - 39.2 °F 66% 30.55 in 10.0 mi Calm Calm - N/A   Clear
2:35 AM 48.2 °F - 37.4 °F 66% 30.56 in 10.0 mi Calm Calm - N/A   Clear
2:55 AM 48.2 °F - 37.4 °F 66% 30.56 in 10.0 mi Calm Calm - N/A   Clear
3:15 AM 48.2 °F - 37.4 °F 66% 30.56 in 10.0 mi NE 3.5 mph - N/A   Clear
3:35 AM 48.2 °F - 37.4 °F 66% 30.56 in 10.0 mi Calm Calm - N/A   Clear
3:55 AM 46.4 °F - 37.4 °F 71% 30.56 in 10.0 mi Calm Calm - N/A   Clear
4:15 AM 46.4 °F - 39.2 °F 76% 30.56 in 10.0 mi Calm Calm - N/A   Clear
4:35 AM 46.4 °F 45.2 °F 37.4 °F 71% 30.57 in 10.0 mi North 3.5 mph - N/A   Clear
5:15 AM 46.4 °F 45.2 °F 37.4 °F 71% 30.58 in 10.0 mi North 3.5 mph - N/A   Clear
5:35 AM 44.6 °F 42.2 °F 37.4 °F 76% 30.59 in 10.0 mi North 4.6 mph - N/A   Clear
5:55 AM 44.6 °F 42.2 °F 35.6 °F 71% 30.59 in 10.0 mi North 4.6 mph - N/A   Clear
6:15 AM 44.6 °F 43.1 °F 37.4 °F 76% 30.60 in 10.0 mi NE 3.5 mph - N/A   Clear
6:35 AM 42.8 °F - 37.4 °F 81% 30.60 in 10.0 mi Calm Calm - N/A   Clear
6:55 AM 44.6 °F - 37.4 °F 76% 30.60 in 10.0 mi Calm Calm - N/A   Clear
7:15 AM 46.4 °F - 39.2 °F 76% 30.61 in 10.0 mi Calm Calm - N/A   Clear
7:35 AM 46.4 °F - 39.2 °F 76% 30.61 in 10.0 mi Calm Calm - N/A   Clear
7:55 AM 48.2 °F - 39.2 °F 71% 30.61 in 10.0 mi Calm Calm - N/A   Clear
8:55 AM 53.6 °F - 41.0 °F 62% 30.61 in 10.0 mi Calm Calm - N/A   Clear
9:15 AM 55.4 °F - 41.0 °F 58% 30.61 in 10.0 mi Calm Calm - N/A   Clear
9:35 AM 57.2 °F - 41.0 °F 55% 30.61 in 10.0 mi Calm Calm - N/A   Clear
10:15 AM 60.8 °F - 42.8 °F 52% 30.60 in 10.0 mi Calm Calm - N/A   Clear
10:35 AM 62.6 °F - 41.0 °F 45% 30.59 in 10.0 mi Calm Calm - N/A   Clear
10:55 AM 64.4 °F - 39.2 °F 40% 30.59 in 10.0 mi Calm Calm - N/A   Clear
11:15 AM 66.2 °F - 39.2 °F 37% 30.58 in 10.0 mi Calm Calm - N/A   Clear
11:35 AM 69.8 °F - 39.2 °F 33% 30.57 in 10.0 mi Calm Calm - N/A   Clear
11:55 AM 69.8 °F - 37.4 °F 31% 30.56 in 10.0 mi Calm Calm - N/A   Clear
12:15 PM 71.6 °F - 41.0 °F 33% 30.55 in 10.0 mi SSW 4.6 mph - N/A   Clear
12:35 PM 71.6 °F - 41.0 °F 33% 30.55 in 10.0 mi SSW 3.5 mph - N/A   Clear
12:55 PM 73.4 °F - 37.4 °F 27% 30.53 in 10.0 mi SSW 3.5 mph - N/A   Clear
1:15 PM 75.2 °F - 33.8 °F 22% 30.53 in 10.0 mi SW 5.8 mph - N/A   Clear
1:35 PM 75.2 °F - 32.0 °F 21% 30.52 in 10.0 mi Calm Calm - N/A   Clear
1:55 PM 77.0 °F - 28.4 °F 17% 30.51 in 10.0 mi SW 4.6 mph - N/A   Clear
2:15 PM 78.8 °F - 30.2 °F 17% 30.51 in 10.0 mi WSW 6.9 mph - N/A   Clear
2:35 PM 77.0 °F - 28.4 °F 17% 30.50 in 10.0 mi SW 4.6 mph - N/A   Clear
2:55 PM 78.8 °F - 28.4 °F 16% 30.49 in 10.0 mi SW 4.6 mph - N/A   Clear
3:35 PM 80.6 °F - 33.8 °F 18% 30.47 in 10.0 mi West 8.1 mph - N/A   Clear
3:55 PM 80.6 °F - 33.8 °F 18% 30.45 in 10.0 mi SW 10.4 mph - N/A   Clear
4:35 PM 80.6 °F - 33.8 °F 18% 30.43 in 10.0 mi WSW 15.0 mph 18.4 mph N/A   Clear
4:55 PM 80.6 °F - 35.6 °F 20% 30.43 in 10.0 mi WSW 9.2 mph - N/A   Clear
5:15 PM 80.6 °F - 30.2 °F 16% 30.42 in 10.0 mi West 10.4 mph 19.6 mph N/A   Clear
5:35 PM 80.6 °F - 30.2 °F 16% 30.42 in 10.0 mi WNW 17.3 mph 20.7 mph N/A   Clear
5:55 PM 80.6 °F - 32.0 °F 17% 30.42 in 10.0 mi WNW 11.5 mph 18.4 mph N/A   Partly Cloudy
6:15 PM 80.6 °F - 30.2 °F 16% 30.41 in 10.0 mi NW 6.9 mph - N/A   Clear
6:55 PM 78.8 °F - 33.8 °F 20% 30.41 in 10.0 mi North 5.8 mph - N/A   Clear
7:15 PM 77.0 °F - 35.6 °F 22% 30.41 in 10.0 mi North 10.4 mph - N/A   Clear
7:35 PM 75.2 °F - 37.4 °F 25% 30.41 in 10.0 mi NNW 4.6 mph - N/A   Clear
7:55 PM 73.4 °F - 35.6 °F 25% 30.42 in 10.0 mi North 4.6 mph - N/A   Clear
8:15 PM 71.6 °F - 35.6 °F 27% 30.42 in 10.0 mi NNW 4.6 mph - N/A   Clear
8:35 PM 69.8 °F - 41.0 °F 35% 30.42 in 10.0 mi North 4.6 mph - N/A   Clear
8:55 PM 68.0 °F - 42.8 °F 40% 30.42 in 10.0 mi NNE 6.9 mph - N/A   Clear
9:15 PM 66.2 °F - 41.0 °F 40% 30.42 in 10.0 mi North 5.8 mph - N/A   Clear
9:35 PM 64.4 °F - 39.2 °F 40% 30.43 in 10.0 mi NNW 8.1 mph - N/A   Clear
9:55 PM 64.4 °F - 39.2 °F 40% 30.44 in 10.0 mi North 5.8 mph - N/A   Clear
10:15 PM 62.6 °F - 39.2 °F 42% 30.44 in 10.0 mi NE 8.1 mph - N/A   Clear
10:35 PM 62.6 °F - 39.2 °F 42% 30.44 in 10.0 mi North 6.9 mph - N/A   Clear
10:55 PM 60.8 °F - 39.2 °F 45% 30.44 in 10.0 mi North 4.6 mph - N/A   Clear
11:15 PM 60.8 °F - 39.2 °F 45% 30.44 in 10.0 mi North 4.6 mph - N/A   Clear
11:35 PM 57.2 °F - 41.0 °F 55% 30.45 in 10.0 mi Calm Calm - N/A   Clear
11:55 PM 57.2 °F - 41.0 °F 55% 30.45 in 10.0 mi Calm Calm - N/A   Clear